AirNav   Everest Fuels
 
 564 users online  

2XA0 Foard County Airport
Crowell, Texas, USA

GOING TO CROWELL?


FAA INFORMATION EFFECTIVE 22 APRIL 2021

Location

FAA Identifier: 2XA0
Lat/Long: 33-58-45.3030N 099-42-46.3350W
33-58.755050N 099-42.772250W
33.9792508,-99.7128708
(estimated)
Elevation: 1479 ft. / 450.8 m (surveyed)
Variation: 08E (1985)
From city: 1 mile E of CROWELL, TX
Time zone: UTC -5 (UTC -6 during Standard Time)
Zip code: 79227

Airport Operations

Airport use: Private use. Permission required prior to landing
Activation date: 10/1946
Control tower: no
ARTCC: FORT WORTH CENTER
FSS: FORT WORTH FLIGHT SERVICE STATION
Attendance: UNATNDD
Wind indicator: yes
Segmented circle: yes
Beacon: white-green (lighted land airport)
ROTG BCN OTS INDEFLY. Operates sunset to sunrise.

Nearby radio navigation aids

VOR radial/distance  VOR name  Freq  Var
CDSr119/36.9CHILDRESS VORTAC117.0010E

Airport Services

Parking: tiedowns
Airframe service: NONE
Powerplant service: NONE
Bottled oxygen: NONE
Bulk oxygen: NONE

Runway Information

Runway 17/35

Dimensions: 3200 x 39 ft. / 975 x 12 m
Surface: asphalt, in poor condition
RY PAVEMENT HAS GRASS ENCROACHMENT.
Weight bearing capacity: 
Single wheel: 8.0
Runway edge lights: medium intensity
MIRL OTS INDEFLY.
Runway edge markings: RY MARKINGS FADED.
RUNWAY 17  RUNWAY 35
Traffic pattern: leftleft
Markings: basic, in poor conditionbasic, in poor condition
Obstructions: 15 ft. road, 490 ft. from runway, 19:1 slope to clearnone
+10 FT TREE 55 FT LEFT 135 FT SOUTH OF THLD.

Airport Ownership and Management from official FAA records

Ownership: Publicly-owned
Owner: FOARD COUNTY
COUNTY COURTHOUSE, PO BOX 660
CROWELL, TX 79227
Phone 940-684-1424
Manager: MARK CHRISTOPHER
COUNTY COURTHOUSE, PO BOX 660
CROWELL, TX 79227
Phone 940-684-1424

Airport Operational Statistics

Aircraft operations: avg 42/month *
100% transient general aviation
* for 12-month period ending 17 February 2004

Additional Remarks

ARPT CLSD NIGHTS.
FOR CD CTC FORT WORTH ARTCC AT 817-858-7584.

Instrument Procedures

There are no published instrument procedures at 2XA0.

Some nearby airports with instrument procedures:

F05 - Wilbarger County Airport (26 nm NE)
3F6 - Dan E Richards Municipal Airport (28 nm W)
60F - Seymour Municipal Airport (30 nm SE)
KCDS - Childress Municipal Airport (39 nm NW)
KFDR - Frederick Regional Airport (43 nm NE)
 
Loc | Ops | Rwys | IFR | FBO | Links
Com | Nav | Svcs | Stats | Notes

AirBoss

 
Area around 2XA0 (Foard County Airport)
 
Road maps at: MapQuest Bing Google
 
Aerial photo
No photo
 
Sectional chart

 
Airport distance calculator
Flying to Foard County Airport? Find the distance to fly.

From to 2XA0

Sunrise and sunset
Times for 06-May-2021
 Local
(UTC-5)
 Zulu
(UTC)
Morning civil twilight06:1911:19
Sunrise06:4611:46
Sunset20:2501:25
Evening civil twilight20:5201:52

Current date and time
Zulu (UTC)  06-May-2021 05:13:07
Local (UTC-5)  06-May-2021 00:13:07
 
METAR
KF05 
26nm NE 
060455Z AUTO 10008KT 10SM SCT120 17/10 A3015 RMK AO2 T01740099
KCDS 
39nm NW 
060453Z AUTO 11008KT 10SM CLR 17/07 A3016 RMK AO2 LTG DSNT NE SLP195 T01720072
KFDR 
43nm NE 
060453Z AUTO 09012KT 10SM BKN110 17/09 A3014 RMK AO2 LTG DSNT N SLP193 T01670089
KLTS 
47nm NE 
060458Z 36014KT 10SM TS BKN080CB OVC100 17/07 A3022 RMK PRESRR TSB58 SLP225 $
KAXS 
47nm NE 
060455Z AUTO 05010KT 10SM SCT080 OVC110 18/07 A3022 RMK AO2 T01790073
TAF
KCDS 
39nm NW 
051738Z 0518/0618 17011G21KT P6SM FEW250 FM060600 09011KT P6SM FEW250
KLTS 
47nm NE 
060100Z 0601/0707 13006KT 9999 SKC QNH3004INS BECMG 0604/0605 VRB06KT 9000 -SHRA FEW050 BKN090 QNH3015INS BECMG 0610/0611 VRB06KT 9999 NSW SCT050 OVC100 QNH3010INS TX26/0622Z TN12/0612Z
NOTAMs
Click for the latest NOTAMs
NOTAMs are issued by the DoD/FAA and will open in a separate window not controlled by AirNav.

 

 
 

Would you like to see your business listed on this page?

 If your business provides an interesting product or service to pilots, flight crews, aircraft, or users of the Foard County Airport, you should consider listing it here.  To start the listing process, click on the button below
 
Add a business
 

Other Pages about Foard County Airport

Update a link
 
Copyright © AirNav, LLC. All rights reserved. Privacy Policy  Contact